Fredericksburg, Texas, United States (78624)
Lat: 30.27N, Lon: 98.87W
Wx Zone: TXZ188
Local Info
Past Weather Observations for Today

NOTE: This archive is for the closest National Weather Service station to Fredericksburg. Information may differ from the station used for current weather conditions.

Click here for Long-term Archive

Time Weather Temperature Dewpoint Humidity Pressure Winds Precip Visibility
21:15
Partly Cloudy
75°F / 24°C 72°F / 22°C 89% 29.98 in
(1015 mb)
Calm - 10SM
20:55
Clear
77°F / 25°C 72°F / 22°C 83% 29.95 in
(1014 mb)
Calm - 10SM
20:35
Clear
77°F / 25°C 72°F / 22°C 83% 29.95 in
(1014 mb)
SSE 3.5 mph
(SSE 6 kph)
- 10SM
20:15
Clear
77°F / 25°C 72°F / 22°C 83% 29.95 in
(1014 mb)
SSE 3.5 mph
(SSE 6 kph)
- 10SM
19:55
Partly Cloudy
77°F / 25°C 72°F / 22°C 83% 29.92 in
(1013 mb)
Calm - 10SM
19:35
Overcast
79°F / 26°C 72°F / 22°C 79% 29.92 in
(1013 mb)
SE 3.5 mph
(SE 6 kph)
- 10SM
19:15
Mostly Cloudy
79°F / 26°C 72°F / 22°C 79% 29.92 in
(1013 mb)
Calm - 10SM
18:55
Partly Cloudy
79°F / 26°C 72°F / 22°C 79% 29.92 in
(1013 mb)
Calm - 10SM
18:35
Mostly Cloudy
79°F / 26°C 72°F / 22°C 79% 29.92 in
(1013 mb)
Calm - 10SM
18:15
Clear
Thunder Storms
81°F / 27°C 72°F / 22°C 74% 29.92 in
(1013 mb)
Calm - 10SM
17:55
Clear
Thunder Storms
81°F / 27°C 70°F / 21°C 70% 29.92 in
(1013 mb)
S 6.9 mph
(S 11 kph)
- 10SM
17:35
Clear
82°F / 28°C 70°F / 21°C 66% 29.92 in
(1013 mb)
SSE 4.6 mph
(SSE 7 kph)
- 10SM
17:15
Clear
82°F / 28°C 70°F / 21°C 66% 29.92 in
(1013 mb)
SSE 3.5 mph
(SSE 6 kph)
- 10SM
16:55
Clear
82°F / 28°C 70°F / 21°C 66% 29.92 in
(1013 mb)
SE 3.5 mph
(SE 6 kph)
- 10SM
16:35
Clear
82°F / 28°C 70°F / 21°C 66% 29.92 in
(1013 mb)
Calm - 10SM
16:15
Clear
82°F / 28°C 70°F / 21°C 66% 29.92 in
(1013 mb)
S 5.8 mph
(S 9 kph)
- 10SM
15:55
Clear
84°F / 29°C 70°F / 21°C 62% 29.92 in
(1013 mb)
SSE 6.9 mph
(SSE 11 kph)
- 10SM
15:35
Clear
84°F / 29°C 70°F / 21°C 62% 29.92 in
(1013 mb)
SSE 6.9 mph
(SSE 11 kph)
- 10SM
15:15
Partly Cloudy
82°F / 28°C 72°F / 22°C 70% 29.92 in
(1013 mb)
SE 5.8 mph
(SE 9 kph)
- 10SM
14:55
Clear
82°F / 28°C 72°F / 22°C 70% 29.92 in
(1013 mb)
SE 6.9 mph
(SE 11 kph)
- 10SM
14:35
Clear
84°F / 29°C 72°F / 22°C 66% 29.95 in
(1014 mb)
SE 4.6 mph
(SE 7 kph)
- 10SM
14:15
Clear
82°F / 28°C 72°F / 22°C 70% 29.95 in
(1014 mb)
SSE 5.8 mph
(SSE 9 kph)
- 10SM
13:55
Clear
82°F / 28°C 70°F / 21°C 66% 29.95 in
(1014 mb)
SE 4.6 mph
(SE 7 kph)
- 10SM
13:35
Partly Cloudy
81°F / 27°C 70°F / 21°C 70% 29.95 in
(1014 mb)
SSE 5.8 mph
(SSE 9 kph)
- 10SM
13:15
Partly Cloudy
79°F / 26°C 72°F / 22°C 79% 29.98 in
(1015 mb)
SE 5.8 mph
(SE 9 kph)
- 10SM
12:55
Mostly Cloudy
79°F / 26°C 70°F / 21°C 74% 29.98 in
(1015 mb)
SE 8.1 mph
(SE 13 kph)
- 10SM
12:35
Mostly Cloudy
82°F / 28°C 70°F / 21°C 66% 29.98 in
(1015 mb)
S 5.8 mph
(S 9 kph)
- 10SM
12:15
Mostly Cloudy
82°F / 28°C 70°F / 21°C 66% 29.98 in
(1015 mb)
Calm - 10SM
11:55
Partly Cloudy
82°F / 28°C 70°F / 21°C 66% 29.98 in
(1015 mb)
Calm - 10SM
11:35
Partly Cloudy
82°F / 28°C 70°F / 21°C 66% 30.01 in
(1016 mb)
Calm - 10SM
11:15
Partly Cloudy
81°F / 27°C 70°F / 21°C 70% 30.01 in
(1016 mb)
Calm - 10SM
10:55
Mostly Cloudy
81°F / 27°C 70°F / 21°C 70% 30.01 in
(1016 mb)
Calm - 10SM
10:35
Overcast
79°F / 26°C 72°F / 22°C 79% 30.01 in
(1016 mb)
Calm - 10SM
10:15
Overcast
79°F / 26°C 70°F / 21°C 74% 30.04 in
(1017 mb)
Calm - 10SM
09:55
Mostly Cloudy
79°F / 26°C 72°F / 22°C 79% 30.04 in
(1017 mb)
Calm - 10SM
09:35
Partly Cloudy
79°F / 26°C 72°F / 22°C 79% 30.04 in
(1017 mb)
SSE 3.5 mph
(SSE 6 kph)
- 10SM
09:15
Mostly Cloudy
77°F / 25°C 72°F / 22°C 83% 30.04 in
(1017 mb)
Calm - 10SM
08:55
Overcast
75°F / 24°C 72°F / 22°C 89% 30.04 in
(1017 mb)
SSE 3.5 mph
(SSE 6 kph)
- 10SM
08:35
Overcast
75°F / 24°C 72°F / 22°C 89% 30.04 in
(1017 mb)
Calm - 10SM
08:15
Overcast
73°F / 23°C 72°F / 22°C 94% 30.04 in
(1017 mb)
Calm - 7SM
07:55
Overcast
73°F / 23°C 72°F / 22°C 94% 30.04 in
(1017 mb)
Calm - 7SM
07:35
Overcast
Fog And Mist
73°F / 23°C 72°F / 22°C 94% 30.01 in
(1016 mb)
Calm - 5SM
07:15
Mostly Cloudy
Fog And Mist
73°F / 23°C 72°F / 22°C 94% 30.01 in
(1016 mb)
Calm - 4SM
06:55
Mostly Cloudy
Fog And Mist
73°F / 23°C 72°F / 22°C 94% 30.01 in
(1016 mb)
Calm - 5SM
06:35
Mostly Cloudy
Fog And Mist
73°F / 23°C 72°F / 22°C 94% 30.01 in
(1016 mb)
Calm - 5SM
06:15
Overcast
73°F / 23°C 72°F / 22°C 94% 30.01 in
(1016 mb)
Calm - 7SM
05:55
Mostly Cloudy
Fog And Mist
73°F / 23°C 72°F / 22°C 94% 30.01 in
(1016 mb)
Calm - 5SM
05:35
Mostly Cloudy
73°F / 23°C 72°F / 22°C 94% 30.01 in
(1016 mb)
Calm - 7SM
05:15
Overcast
73°F / 23°C 72°F / 22°C 94% 30.01 in
(1016 mb)
Calm - 7SM
04:55
Overcast
73°F / 23°C 72°F / 22°C 94% 30.01 in
(1016 mb)
Calm - 7SM
04:35
Overcast
73°F / 23°C 72°F / 22°C 94% 30.01 in
(1016 mb)
Calm - 7SM
04:15
Overcast
73°F / 23°C 72°F / 22°C 94% 30.01 in
(1016 mb)
Calm - 7SM
03:55
Overcast
73°F / 23°C 72°F / 22°C 94% 30.01 in
(1016 mb)
Calm - 7SM
03:35
Overcast
73°F / 23°C 72°F / 22°C 94% 30.01 in
(1016 mb)
Calm - 7SM
03:15
Overcast
73°F / 23°C 72°F / 22°C 94% 30.01 in
(1016 mb)
Calm - 7SM
02:55
Overcast
73°F / 23°C 72°F / 22°C 94% 30.01 in
(1016 mb)
Calm - 7SM
02:35
Overcast
Fog And Mist
73°F / 23°C 72°F / 22°C 94% 30.04 in
(1017 mb)
Calm - 5SM
02:15
Overcast
Fog And Mist
73°F / 23°C 72°F / 22°C 94% 30.04 in
(1017 mb)
Calm - 5SM
01:55
Overcast
73°F / 23°C 72°F / 22°C 94% 30.04 in
(1017 mb)
Calm - 7SM
01:35
Overcast
73°F / 23°C 72°F / 22°C 94% 30.04 in
(1017 mb)
Calm - 10SM
01:15
Overcast
73°F / 23°C 72°F / 22°C 94% 30.04 in
(1017 mb)
Calm - 10SM
00:55
Overcast
73°F / 23°C 72°F / 22°C 94% 30.04 in
(1017 mb)
E 3.5 mph
(E 6 kph)
0.01 in
(0.25 mm)
10SM
00:35
Mostly Cloudy
73°F / 23°C 72°F / 22°C 94% 30.04 in
(1017 mb)
Calm 0.01 in
(0.25 mm)
10SM
00:15
Partly Cloudy
72°F / 22°C 72°F / 22°C 100% 30.04 in
(1017 mb)
Calm - 10SM
Time Weather Temperature Dewpoint Humidity Pressure Winds Precip Visibility


Weather for websites

WeatherForYou.com, LLC is not responsible for any damages or problems caused by this service. Current weather conditions are obtained from the closest station including government and personal stations which may have varying degrees of accuracy. Weather forecasts are derived from the NOAA NDFD. Like all things, this site belongs to Jesus Christ... He just trusts me to maintain it. If you have any questions or comments email webmaster@weatherforyou.com

Copyright © 2014, WeatherForYou.com LLC. All rights reserved.